Gustavus, AK

11:36 AM AKDT on July 22, 2017 (GMT -0800)
Gustavus

Weather History for PAGS - December, 2012

Change the Weather History Date:

Friday, December 14, 2012

  Actual Average Record
Temperature  
Mean Temperature 40 °F -  
Max Temperature 42 °F 36 °F 46 °F (1989)
Min Temperature 37 °F 26 °F 1 °F (1956)
Degree Days  
Heating Degree Days 26    
Moisture  
Dew Point 30 °F    
Average Humidity 69    
Maximum Humidity 75    
Minimum Humidity 57    
Precipitation  
Precipitation 0.00 in - - ()
Sea Level Pressure  
Sea Level Pressure 29.15 in    
Wind  
Wind Speed 17 mph (SE)    
Max Wind Speed 28 mph    
Max Gust Speed 38 mph    
Visibility 10 miles    
Events      
Averages and records for this station are not official NWS values.
T = Trace of Precipitation, MM = Missing Value Source: NWS Daily Summary

Daily Weather History Graph

Daily Weather History Graph

Search for Another Location

Airport or City:

Trip Planner

Search our weather history database for the weather conditions in past years. The results will help you decide how hot, cold, wet, or windy it might be!

Date:

Astronomy

Dec. 14, 2012 Rise Set
Actual Time 8:45 AM AKST 3:09 PM AKST
Civil Twilight 7:53 AM AKST 4:02 PM AKST
Nautical Twilight 6:59 AM AKST 4:55 PM AKST
Astronomical Twilight 6:10 AM AKST 5:44 PM AKST
Moon 9:41 AM AKST (12/14) 5:30 PM AKST (12/14)
Length of Visible Light 8h 09m
Length of Day
6h 24m
Waxing Crescent, 3% of the Moon is Illuminated
Dec 14
Waxing Crescent
Dec 19
First Quarter
Dec 28
Full
Jan 4
Last Quarter
Jan 11
New

Hourly Weather History & Observations

Time (AKST) Temp. Windchill Dew Point Humidity Pressure Visibility Wind Dir Wind Speed Gust Speed Precip Events Conditions
12:16 AM 37.4 °F 30.8 °F 30.2 °F 75% 29.53 in 9.0 mi SSE 9.2 mph - N/A   Overcast
12:36 AM 37.4 °F 31.4 °F 30.2 °F 75% 29.52 in 5.0 mi SSE 8.1 mph - N/A   Overcast
12:56 AM 37.4 °F 30.8 °F 30.2 °F 75% 29.51 in 10.0 mi ESE 9.2 mph - N/A   Mostly Cloudy
1:16 AM 37.4 °F 28.5 °F 30.2 °F 75% 29.51 in 10.0 mi SE 15.0 mph - N/A   Overcast
1:36 AM 37.4 °F 29.3 °F 30.2 °F 75% 29.51 in 10.0 mi ESE 12.7 mph - N/A   Scattered Clouds
1:56 AM 37.4 °F 29.8 °F 30.2 °F 75% 29.50 in 10.0 mi ESE 11.5 mph - N/A   Partly Cloudy
2:16 AM 37.4 °F 29.3 °F 30.2 °F 75% 29.50 in 10.0 mi ESE 12.7 mph - N/A   Scattered Clouds
2:36 AM 37.4 °F 30.8 °F 30.2 °F 75% 29.50 in 10.0 mi SE 9.2 mph - N/A   Overcast
2:56 AM 37.4 °F 32.1 °F 30.2 °F 75% 29.49 in 10.0 mi SE 6.9 mph - N/A   Overcast
3:16 AM 37.4 °F 30.3 °F 30.2 °F 75% 29.48 in 10.0 mi SE 10.4 mph - N/A   Overcast
3:36 AM 37.4 °F 29.3 °F 30.2 °F 75% 29.47 in 10.0 mi SE 12.7 mph - N/A   Mostly Cloudy
3:56 AM 37.4 °F 29.8 °F 30.2 °F 75% 29.46 in 10.0 mi SE 11.5 mph - N/A   Scattered Clouds
4:16 AM 37.4 °F 27.8 °F 30.2 °F 75% 29.46 in 10.0 mi SE 17.3 mph 20.7 mph N/A   Mostly Cloudy
4:36 AM 37.4 °F 28.2 °F 30.2 °F 75% 29.45 in 10.0 mi SE 16.1 mph - N/A   Overcast
4:56 AM 37.4 °F 27.8 °F 30.2 °F 75% 29.44 in 10.0 mi SE 17.3 mph - N/A   Overcast
5:16 AM 37.4 °F 27.2 °F 30.2 °F 75% 29.43 in 10.0 mi SE 19.6 mph 24.2 mph N/A   Overcast
5:36 AM 37.4 °F 28.2 °F 30.2 °F 75% 29.42 in 10.0 mi SE 16.1 mph - N/A   Overcast
5:56 AM 37.4 °F 27.5 °F 30.2 °F 75% 29.40 in 10.0 mi SE 18.4 mph 24.2 mph N/A   Overcast
6:16 AM 37.4 °F 27.2 °F 30.2 °F 75% 29.39 in 10.0 mi SE 19.6 mph 25.3 mph N/A   Overcast
6:36 AM 39.2 °F 30.2 °F 30.2 °F 70% 29.38 in 10.0 mi SE 17.3 mph 24.2 mph N/A   Overcast
6:56 AM 39.2 °F 30.5 °F 30.2 °F 70% 29.37 in 10.0 mi SE 16.1 mph 19.6 mph N/A   Overcast
7:16 AM 39.2 °F 29.6 °F 30.2 °F 70% 29.35 in 10.0 mi SE 19.6 mph 24.2 mph N/A   Overcast
7:36 AM 39.2 °F 29.8 °F 30.2 °F 70% 29.34 in 10.0 mi SE 18.4 mph 27.6 mph N/A   Overcast
7:56 AM 39.2 °F 29.3 °F 30.2 °F 70% 29.33 in 10.0 mi SE 20.7 mph 25.3 mph N/A   Mostly Cloudy
8:16 AM 39.2 °F 29.6 °F 30.2 °F 70% 29.32 in 10.0 mi SE 19.6 mph 28.8 mph N/A   Mostly Cloudy
8:36 AM 39.2 °F 29.8 °F 30.2 °F 70% 29.30 in 10.0 mi SE 18.4 mph 25.3 mph N/A   Overcast
8:56 AM 39.2 °F 29.3 °F 30.2 °F 70% 29.29 in 10.0 mi SE 20.7 mph 27.6 mph N/A   Mostly Cloudy
9:16 AM 39.2 °F 28.0 °F 30.2 °F 70% 29.28 in 10.0 mi SE 26.5 mph 33.4 mph N/A   Mostly Cloudy
9:36 AM 39.2 °F 28.7 °F 30.2 °F 70% 29.27 in 10.0 mi SE 23.0 mph 31.1 mph N/A   Scattered Clouds
9:56 AM 39.2 °F 29.0 °F 30.2 °F 70% 29.25 in 10.0 mi SE 21.9 mph 32.2 mph N/A   Partly Cloudy
10:16 AM 39.2 °F 28.5 °F 30.2 °F 70% 29.24 in 10.0 mi SE 24.2 mph 29.9 mph N/A   Partly Cloudy
10:36 AM 39.2 °F 28.7 °F 30.2 °F 70% 29.23 in 10.0 mi SE 23.0 mph 33.4 mph N/A   Mostly Cloudy
10:56 AM 39.2 °F 29.3 °F 30.2 °F 70% 29.22 in 10.0 mi SE 20.7 mph 28.8 mph N/A   Overcast
11:16 AM 39.2 °F 29.8 °F 30.2 °F 70% 29.20 in 10.0 mi SE 18.4 mph 29.9 mph N/A   Overcast
11:36 AM 39.2 °F 29.0 °F 30.2 °F 70% 29.17 in 10.0 mi SE 21.9 mph 27.6 mph N/A   Scattered Clouds
11:56 AM 39.2 °F 28.7 °F 30.2 °F 70% 29.15 in 10.0 mi SE 23.0 mph 31.1 mph N/A   Mostly Cloudy
12:16 PM 39.2 °F 28.7 °F 30.2 °F 70% 29.14 in 10.0 mi SE 23.0 mph 34.5 mph N/A   Overcast
12:36 PM 39.2 °F 27.8 °F 30.2 °F 70% 29.12 in 10.0 mi SE 27.6 mph 36.8 mph N/A   Overcast
12:56 PM 39.2 °F 29.6 °F 30.2 °F 70% 29.11 in 10.0 mi SE 19.6 mph 27.6 mph N/A   Overcast
1:16 PM 41.0 °F 30.9 °F 30.2 °F 65% 29.09 in 10.0 mi SE 24.2 mph 34.5 mph N/A   Overcast
1:36 PM 39.2 °F 28.3 °F 30.2 °F 70% 29.07 in 10.0 mi SE 25.3 mph 29.9 mph N/A   Overcast
1:56 PM 41.0 °F 30.7 °F 30.2 °F 65% 29.05 in 10.0 mi SE 25.3 mph 34.5 mph N/A   Overcast
2:16 PM 41.0 °F 31.4 °F 30.2 °F 65% 29.04 in 10.0 mi SE 21.9 mph 34.5 mph N/A   Overcast
2:36 PM 39.2 °F 29.0 °F 30.2 °F 70% 29.02 in 10.0 mi SE 21.9 mph 31.1 mph N/A   Overcast
2:56 PM 39.2 °F 28.3 °F 30.2 °F 70% 29.02 in 10.0 mi SE 25.3 mph 31.1 mph N/A   Overcast
3:16 PM 39.2 °F 28.7 °F 30.2 °F 70% 29.00 in 10.0 mi SE 23.0 mph 38.0 mph N/A   Overcast
3:36 PM 39.2 °F 28.3 °F 30.2 °F 70% 28.99 in 10.0 mi SE 25.3 mph 29.9 mph N/A   Overcast
3:56 PM 39.2 °F 28.5 °F 30.2 °F 70% 28.97 in 10.0 mi SE 24.2 mph 31.1 mph N/A   Overcast
4:16 PM 39.2 °F 27.8 °F 30.2 °F 70% 28.96 in 10.0 mi SE 27.6 mph 34.5 mph N/A   Overcast
4:36 PM 41.0 °F 31.1 °F 30.2 °F 65% 28.95 in 10.0 mi SE 23.0 mph 31.1 mph N/A   Overcast
4:56 PM 41.0 °F 31.1 °F 30.2 °F 65% 28.93 in 10.0 mi ESE 23.0 mph 31.1 mph N/A   Overcast
5:16 PM 41.0 °F 31.4 °F 30.2 °F 65% 28.92 in 10.0 mi ESE 21.9 mph 32.2 mph N/A   Overcast
5:36 PM 41.0 °F 30.7 °F 30.2 °F 65% 28.91 in 10.0 mi SE 25.3 mph 32.2 mph N/A   Overcast
5:56 PM 42.8 °F 34.0 °F 28.4 °F 57% 28.90 in 10.0 mi SE 20.7 mph 34.5 mph N/A   Overcast
6:16 PM 41.0 °F 30.7 °F 28.4 °F 61% 28.89 in 10.0 mi SE 25.3 mph 34.5 mph N/A   Overcast
6:36 PM 41.0 °F 31.1 °F 30.2 °F 65% 28.87 in 10.0 mi SE 23.0 mph 34.5 mph N/A   Overcast
6:56 PM 41.0 °F 31.4 °F 30.2 °F 65% 28.86 in 10.0 mi SE 21.9 mph 32.2 mph N/A   Overcast
7:16 PM 41.0 °F 31.6 °F 30.2 °F 65% 28.86 in 10.0 mi SE 20.7 mph 29.9 mph N/A   Overcast
7:36 PM 41.0 °F 31.6 °F 30.2 °F 65% 28.86 in 10.0 mi SE 20.7 mph 26.5 mph N/A   Overcast
7:56 PM 41.0 °F 31.6 °F 30.2 °F 65% 28.84 in 10.0 mi SE 20.7 mph 31.1 mph N/A   Overcast
8:16 PM 41.0 °F 31.6 °F 30.2 °F 65% 28.83 in 10.0 mi ESE 20.7 mph 28.8 mph N/A   Mostly Cloudy
8:36 PM 41.0 °F 31.9 °F 30.2 °F 65% 28.83 in 10.0 mi SE 19.6 mph 29.9 mph N/A   Overcast
8:56 PM 42.8 °F 34.3 °F 30.2 °F 61% 28.83 in 10.0 mi SE 19.6 mph 27.6 mph N/A   Overcast
9:16 PM 42.8 °F 33.8 °F 30.2 °F 61% 28.82 in 10.0 mi SE 21.9 mph 33.4 mph N/A   Overcast
9:36 PM 42.8 °F 33.3 °F 30.2 °F 61% 28.82 in 10.0 mi SE 24.2 mph 31.1 mph N/A   Overcast
9:56 PM 42.8 °F 34.0 °F 30.2 °F 61% 28.82 in 10.0 mi SE 20.7 mph 31.1 mph N/A   Overcast
10:16 PM 42.8 °F 33.1 °F 30.2 °F 61% 28.82 in 10.0 mi SE 25.3 mph 34.5 mph N/A   Overcast
10:36 PM 42.8 °F 33.3 °F 30.2 °F 61% 28.82 in 10.0 mi SE 24.2 mph 31.1 mph N/A   Overcast
10:56 PM 42.8 °F 34.0 °F 30.2 °F 61% 28.81 in 10.0 mi SE 20.7 mph 33.4 mph N/A   Overcast
11:16 PM 42.8 °F 34.5 °F 30.2 °F 61% 28.81 in 10.0 mi SE 18.4 mph 31.1 mph N/A   Overcast
11:36 PM 42.8 °F 33.5 °F 30.2 °F 61% 28.80 in 10.0 mi SE 23.0 mph 27.6 mph N/A   Overcast
11:56 PM 42.8 °F 34.3 °F 30.2 °F 61% 28.80 in 10.0 mi SE 19.6 mph 29.9 mph N/A   Scattered Clouds